Temperature
18 18 18 18 18 18 18 18 18 18 18 18 18 18 18 18 18 18 18 18 18 18 18 18 18 18 17 17 17 17 17 17 17 17 17 17 17 16 16 16 16 16 16
18 18 18 18 18 18 18 18 18 18 18 18 18 18 18 18 18 18 18 18 18 18 18 18 17 17 17 17 17 17 17 17 17 17 17 17 17 16 16 16 16 16 16
18 18 18 18 18 18 18 18 18 17 17 17 18 18 17 17 18 18 18 18 18 18 18 17 17 17 17 17 17 17 17 17 17 17 17 17 17 16 16 16 16 16 16
18 18 18 18 18 18 18 18 18 18 17 17 18 18 18 17 17 18 18 18 18 18 18 17 17 17 17 17 17 17 17 17 17 17 17 17 16 16 16 16 16 16 16
17 17 18 18 18 18 18 18 17 17 17 17 17 18 18 17 17 17 17 17 18 18 17 17 17 17 17 17 17 17 17 17 17 17 17 17 16 16 16 16 16 16 16
17 17 17 17 17 17 17 17 17 17 17 17 17 17 17 17 17 17 17 17 17 17 17 17 17 17 17 17 17 17 17 17 16 16 16 16 16 16 16 16 16 16 16
17 17 17 17 17 17 17 17 17 17 17 17 17 17 17 17 17 17 17 17 17 17 17 17 17 17 17 17 17 17 17 16 16 16 16 16 16 16 16 16 16 16 15
17 17 17 17 17 17 17 17 17 17 17 17 17 17 17 17 17 17 17 17 17 17 17 17 17 17 17 17 16 16 16 16 16 16 16 16 16 16 16 16 16 16 15
17 17 17 17 17 17 17 17 17 17 17 17 17 17 16 17 17 17 17 17 17 17 17 17 17 17 16 16 16 16 16 16 16 16 16 16 16 16 16 16 16 16 15
17 17 17 17 17 17 17 17 17 17 17 17 17 16 16 16 16 16 17 17 17 17 17 17 16 16 16 16 16 16 16 16 16 16 16 16 16 16 16 16 16 15 15
17 17 17 17 17 17 17 17 16 16 16 16 16 16 16 16 16 16 16 16 16 16 16 16 16 16 16 16 16 16 16 16 16 16 16 16 15 15 15 15 15 15 15
17 17 17 16 16 16 16 16 16 16 16 16 16 16 16 16 16 16 16 16 16 16 16 16 16 16 16 16 16 16 15 15 15 16 15 15 15 15 15 15 15 15 15
16 16 16 16 16 16 16 16 16 16 16 16 16 16 16 16 16 16 16 15 15 16 16 16 16 16 15 15 15 15 15 15 15 15 15 15 15 15 15 15 15 15 15
16 16 16 16 16 16 16 16 16 16 16 16 16 16 16 16 16 15 15 15 15 15 15 15 16 15 15 15 15 15 15 15 15 15 15 15 15 15 15 15 15 15 15
16 16 16 16 16 16 16 16 16 16 16 16 16 16 16 16 15 15 15 15 15 14 14 15 15 15 15 15 15 15 15 15 15 15 15 15 15 14 14 14 14 14 14
16 16 16 16 16 16 16 16 16 16 15 15 15 15 15 15 15 15 15 15 15 15 14 15 15 15 15 15 15 14 14 14 14 14 14 14 14 14 14 14 14 14 14
16 16 16 16 16 16 15 15 15 15 15 15 15 15 15 15 15 15 15 15 15 14 14 14 15 15 14 14 14 14 14 14 14 14 14 14 14 14 14 14 14 14 14
16 16 16 16 15 15 15 15 15 15 15 15 15 15 15 15 15 15 14 14 14 14 14 14 14 14 14 14 14 14 14 14 14 14 14 14 14 14 14 14 14 14 14
16 15 15 15 15 15 15 15 15 15 15 15 14 14 14 14 14 14 14 14 14 14 14 14 14 14 14 14 14 14 13 13 13 13 13 13 13 13 13 13 13 13 13
15 15 15 15 15 15 14 14 14 14 14 14 14 14 14 14 14 14 14 14 14 14 14 14 13 13 13 13 13 13 13 13 13 13 13 13 13 13 13 13 13 13 13
15 15 15 14 14 14 14 14 14 14 14 14 14 14 13 13 13 13 13 13 13 13 13 13 13 13 13 13 13 13 13 13 13 13 13 13 13 13 13 13 13 13 13
15 14 14 14 14 14 14 14 14 14 14 14 13 13 13 13 13 13 13 13 13 13 13 13 13 13 13 12 12 12 12 12 12 12 12 12 12 12 13 13 13 13 13
14 14 14 14 14 14 13 13 13 13 13 13 13 13 13 12 12 12 12 12 12 12 12 12 12 12 12 12 12 12 12 12 12 12 12 12 12 12 12 12 12 12 12
14 14 14 14 13 13 13 13 13 13 13 13 13 12 12 12 12 12 12 12 12 12 12 12 12 12 12 12 12 12 12 12 12 11 11 11 12 12 12 12 12 12 12
14 14 13 13 13 13 13 13 13 13 13 12 12 12 12 12 12 12 12 12 12 12 12 12 12 12 12 12 12 11 11 11 11 11 11 11 11 11 11 11 11 11 11
14 13 13 13 13 13 12 12 12 12 12 12 12 12 12 12 12 11 11 11 11 11 11 11 11 11 11 11 11 11 11 11 11 11 11 11 11 11 11 11 11 11 11
Wind_Speed
0 0 1 1 1 1 1 1 1 2 2 3 4 4 4 5 5 6 6 10 11 12 12 13 13 13 13 13 13 13 13 13 12 12 12 12 14 14 14 14 13 13 13
1 0 0 0 1 1 2 1 1 2 1 2 3 3 4 4 5 5 6 7 9 11 12 12 13 12 13 13 13 13 13 13 12 12 12 12 12 13 13 14 14 13 13
1 1 0 0 1 1 0 1 1 1 0 1 2 2 2 4 4 5 5 5 7 9 10 11 11 12 12 12 12 12 12 11 11 11 12 12 12 12 13 13 14 13 13
1 1 1 0 1 0 1 1 1 0 1 1 1 2 1 1 3 4 4 5 6 6 7 9 10 10 11 12 13 12 12 11 11 10 11 11 12 13 13 13 13 13 13
1 2 1 0 1 1 1 1 1 1 1 1 2 2 2 1 2 3 3 4 6 6 6 8 9 9 9 10 11 11 12 11 11 11 11 11 11 11 12 13 14 14 14
1 2 1 1 1 2 1 1 1 1 1 1 1 1 1 2 2 2 3 3 4 6 7 6 7 7 8 9 9 9 10 10 11 11 11 11 11 11 12 12 12 14 14
1 2 1 2 2 2 1 1 1 1 0 0 1 2 2 2 1 2 1 2 2 4 5 6 5 5 6 9 9 9 9 9 10 10 11 10 10 11 12 12 12 12 12
1 2 2 2 1 1 1 1 1 1 0 1 2 1 2 3 2 2 1 2 3 2 3 5 5 6 6 6 8 10 11 10 10 10 10 10 10 10 10 12 12 12 12
1 2 2 2 1 2 1 1 2 2 1 1 1 2 2 2 2 2 2 1 2 2 2 3 5 6 7 7 8 9 11 11 11 10 11 11 11 10 11 11 12 12 12
1 2 2 2 2 1 1 1 2 1 2 0 1 1 2 3 1 2 2 2 1 2 3 4 4 5 6 7 8 9 11 11 11 11 11 11 11 11 11 12 12 12 13
1 2 2 2 2 1 1 1 1 1 1 1 1 1 1 1 1 2 2 3 2 2 3 3 3 3 5 7 7 9 10 10 10 11 11 11 11 11 11 12 12 12 13
1 1 1 1 1 1 1 1 1 1 1 1 0 1 1 1 1 2 2 3 3 3 2 2 2 3 4 6 8 9 10 10 10 11 12 12 12 11 11 12 12 12 12
1 1 1 0 0 0 0 0 1 1 1 1 1 1 1 1 1 1 1 2 2 2 2 1 2 2 3 5 6 9 10 10 10 10 12 12 12 12 12 11 11 11 12
1 0 0 0 0 0 0 1 1 0 1 0 0 0 0 1 0 1 2 2 1 2 1 2 2 2 3 5 7 8 8 10 10 10 11 12 12 12 12 11 11 11 11
0 0 1 0 1 0 1 1 1 1 1 1 0 0 0 1 1 1 1 2 2 2 3 3 2 3 2 4 6 7 7 9 9 8 9 11 12 12 12 12 12 12 11
0 1 0 0 1 1 1 1 0 1 1 1 1 1 1 1 1 1 0 0 1 2 3 3 3 3 3 3 5 6 7 8 8 7 7 10 12 13 13 12 12 11 11
1 1 0 0 0 0 1 1 1 1 1 2 1 1 2 1 1 1 1 1 1 1 2 3 2 3 2 2 2 3 5 5 5 6 6 7 10 12 12 12 12 12 12
1 1 1 1 1 1 1 1 1 1 1 2 2 1 2 2 2 2 1 1 1 1 2 3 3 2 2 2 1 2 3 4 4 5 6 6 7 10 11 12 12 12 11
0 1 1 1 2 2 1 1 1 1 1 1 1 1 2 2 2 2 2 1 1 1 1 1 2 2 2 2 1 1 2 1 3 5 6 6 7 8 9 10 11 11 10
0 1 1 1 1 1 1 1 1 1 1 1 1 1 1 1 1 2 1 1 1 1 1 0 1 2 2 2 1 1 2 2 2 3 3 4 5 6 7 8 9 9 10
1 1 1 2 1 1 1 1 1 1 1 2 2 2 1 2 2 2 1 1 0 0 1 1 1 2 2 2 2 1 2 2 3 2 1 2 2 3 4 6 7 9 10
1 2 2 1 1 2 3 3 2 1 1 1 1 2 2 2 4 4 4 2 1 1 1 0 1 2 2 2 2 2 1 1 2 2 0 2 1 2 3 4 6 8 9
1 2 1 1 2 2 3 3 3 1 1 1 1 1 2 3 3 2 3 4 3 2 1 2 2 3 3 3 2 2 1 2 3 2 1 2 1 2 3 4 6 8 8
2 1 1 1 1 2 4 3 3 2 1 1 1 1 1 2 3 2 2 3 3 3 3 1 2 3 3 3 3 3 2 1 2 2 1 1 2 2 2 2 3 6 7
2 1 1 1 1 2 4 3 3 1 1 2 2 1 1 1 4 3 2 2 3 4 4 3 2 2 3 3 1 1 0 1 1 2 1 1 1 1 1 2 3 3 4
2 1 1 0 1 1 2 3 2 1 1 2 2 2 2 2 3 2 1 1 2 4 4 5 4 5 3 3 2 2 2 2 1 2 2 1 1 0 1 2 2 2 2
Wind_Direction
137 205 230 235 238 215 203 216 220 192 191 198 204 199 206 214 218 218 226 221 215 212 209 207 208 209 211 208 207 210 213 214 214 213 209 205 202 202 202 202 204 205 202
150 133 307 330 272 230 214 186 172 184 195 198 210 205 210 212 214 218 221 220 213 210 207 208 211 213 215 214 209 211 214 213 213 212 208 206 205 203 204 205 206 208 206
152 158 82 38 291 283 163 114 94 85 206 243 240 233 217 213 209 207 210 213 216 217 213 211 213 215 218 217 210 210 211 211 211 211 210 208 206 205 204 205 205 206 205
99 125 90 3 288 53 92 115 103 82 327 299 263 253 244 232 225 210 205 202 203 212 215 213 215 218 219 218 214 211 209 209 207 208 210 210 210 211 209 207 206 207 205
86 125 122 92 71 77 82 118 107 152 253 300 270 253 249 245 243 222 208 206 206 206 208 214 216 218 222 222 215 216 215 213 211 213 214 215 215 212 212 211 210 209 207
100 125 136 115 101 93 75 76 138 155 205 251 255 262 266 242 232 226 223 203 209 211 209 210 215 219 221 212 210 215 216 213 213 216 217 219 220 217 215 212 211 209 209
95 114 92 92 100 107 121 109 133 85 306 70 70 352 329 291 252 234 208 192 212 214 204 204 205 204 213 214 210 213 214 210 212 215 217 218 218 217 216 213 211 208 209
109 117 112 108 108 118 91 89 109 95 271 109 124 93 343 329 314 264 221 200 208 196 197 201 200 204 208 207 210 213 211 210 211 214 215 216 217 216 215 214 211 210 209
77 94 112 131 120 129 149 163 132 133 193 285 138 132 157 242 297 310 259 234 216 208 218 197 200 205 206 204 207 211 213 211 215 217 215 216 215 216 216 212 211 212 212
77 88 91 104 118 116 132 166 133 143 142 213 288 215 200 180 178 309 323 300 267 231 230 221 211 206 208 206 208 212 216 215 216 217 216 214 215 216 214 212 213 215 216
40 82 93 92 99 116 141 159 110 123 151 171 204 238 247 230 169 179 276 307 312 274 248 231 212 204 211 208 207 213 216 217 216 216 216 216 217 219 220 218 218 217 217
4 27 88 94 113 128 153 203 151 147 166 160 176 164 168 184 224 191 227 270 289 290 281 251 218 213 211 208 213 212 214 217 219 219 218 219 221 222 224 224 222 221 220
352 320 25 79 156 213 202 158 128 138 166 150 179 214 205 217 206 181 193 247 279 297 306 303 260 215 213 209 211 209 213 218 219 223 224 224 224 225 225 222 221 220 220
259 301 61 124 226 173 75 87 80 162 64 125 121 166 202 276 221 174 183 192 277 305 312 282 300 251 226 216 215 212 215 220 222 226 227 226 225 224 223 219 219 219 218
196 93 82 40 329 9 63 87 51 357 9 350 300 311 319 294 328 260 184 171 181 252 284 269 279 284 251 225 224 212 215 224 224 226 224 222 222 221 221 220 220 219 217
46 89 72 331 326 12 52 68 28 341 3 319 301 350 334 301 309 302 222 233 193 201 247 268 262 276 272 252 233 217 217 222 218 219 226 225 220 217 218 219 222 221 219
141 118 169 118 349 34 67 76 339 357 340 309 309 315 297 293 303 296 275 259 249 203 249 285 283 294 284 289 256 222 220 214 216 218 226 227 221 216 218 221 224 222 220
176 158 76 46 19 28 41 64 312 326 312 299 304 320 312 321 314 300 289 272 256 230 217 273 301 311 300 276 256 243 236 223 215 225 226 231 229 222 220 222 225 222 220
75 55 75 56 33 27 23 9 316 306 314 307 309 318 319 352 342 331 329 318 296 308 208 227 290 308 318 333 338 296 284 270 242 240 234 233 240 238 231 229 225 222 220
114 41 64 82 63 53 41 11 14 2 355 349 343 328 325 323 313 305 315 306 318 346 338 258 305 325 328 335 3 325 319 313 291 278 253 238 244 246 242 236 229 223 221
102 104 84 75 63 63 41 29 337 359 8 352 350 340 346 3 5 359 353 312 328 8 0 356 319 336 328 339 317 291 292 306 300 284 282 267 251 252 249 244 240 232 226
99 86 90 91 43 34 24 22 26 344 335 333 334 335 336 349 4 10 12 18 68 165 215 223 273 285 277 275 279 288 278 306 298 294 224 284 259 262 256 236 236 233 227
114 97 77 57 33 10 23 26 35 37 331 307 288 307 333 346 4 353 350 4 354 328 245 210 243 265 253 248 241 284 273 249 259 264 229 281 280 261 257 250 234 227 228
142 129 90 68 48 8 15 23 31 43 15 338 311 275 299 327 343 350 350 355 339 329 305 283 234 256 264 253 223 219 227 252 295 294 199 241 277 268 282 273 247 229 229
142 145 133 125 90 344 1 15 34 28 13 347 343 342 334 306 327 -0 31 353 340 332 339 348 324 310 308 294 235 102 69 71 294 284 272 188 253 288 302 292 280 256 234
156 133 94 109 160 285 335 11 28 49 12 342 335 327 334 335 337 357 11 342 322 312 330 341 342 343 338 325 298 207 198 199 232 261 257 183 233 87 318 302 301 290 256
Height
1524 1524 1524 1524 1524 1525 1525 1525 1525 1525 1526 1526 1527 1528 1528 1529 1529 1530 1530 1531 1532 1532 1532 1533 1534 1534 1535 1536 1536 1537 1538 1539 1540 1540 1541 1542 1543 1544 1545 1547 1548 1549 1550
1523 1523 1523 1523 1523 1524 1524 1524 1524 1524 1524 1525 1526 1526 1527 1527 1528 1528 1529 1530 1530 1531 1531 1531 1532 1532 1533 1533 1534 1535 1536 1537 1538 1539 1539 1540 1541 1542 1543 1545 1546 1547 1548
1523 1523 1523 1523 1523 1523 1523 1523 1523 1523 1523 1524 1524 1525 1525 1526 1526 1527 1527 1528 1529 1529 1529 1529 1530 1530 1530 1531 1532 1533 1534 1534 1535 1537 1537 1538 1539 1540 1541 1542 1544 1545 1546
1522 1522 1522 1522 1522 1522 1522 1522 1522 1522 1522 1522 1523 1523 1524 1524 1525 1525 1526 1527 1527 1528 1528 1528 1528 1528 1529 1529 1530 1530 1531 1532 1533 1534 1535 1536 1536 1537 1538 1540 1541 1542 1544
1521 1521 1521 1521 1521 1521 1521 1521 1521 1521 1521 1521 1521 1522 1522 1523 1523 1523 1524 1525 1525 1526 1526 1526 1526 1526 1526 1526 1527 1528 1529 1529 1530 1531 1532 1533 1534 1535 1536 1537 1538 1540 1541
1520 1520 1520 1520 1520 1520 1520 1520 1520 1520 1520 1520 1520 1520 1521 1521 1521 1522 1522 1523 1523 1523 1524 1524 1524 1524 1524 1525 1525 1525 1526 1526 1527 1528 1528 1529 1530 1532 1533 1534 1535 1536 1538
1520 1519 1519 1519 1519 1519 1519 1519 1519 1519 1519 1519 1519 1519 1520 1520 1520 1520 1520 1521 1521 1521 1522 1522 1522 1522 1522 1522 1522 1523 1523 1523 1524 1524 1525 1526 1527 1528 1529 1530 1532 1533 1535
1519 1519 1518 1518 1518 1518 1518 1519 1519 1518 1518 1518 1518 1518 1518 1519 1518 1518 1518 1518 1519 1519 1519 1519 1520 1520 1520 1520 1520 1520 1520 1520 1521 1521 1522 1522 1523 1525 1526 1527 1528 1530 1532
1519 1518 1518 1518 1517 1517 1517 1517 1517 1517 1517 1517 1517 1517 1517 1516 1516 1516 1516 1516 1517 1517 1517 1517 1517 1517 1517 1517 1517 1517 1517 1517 1517 1518 1518 1519 1520 1521 1522 1524 1525 1526 1528
1518 1518 1517 1517 1517 1516 1516 1516 1516 1516 1516 1516 1516 1516 1516 1516 1516 1515 1515 1515 1514 1514 1514 1514 1514 1514 1514 1514 1514 1514 1514 1514 1514 1514 1515 1515 1517 1518 1519 1520 1522 1523 1524
1518 1517 1517 1516 1516 1516 1515 1515 1515 1515 1515 1514 1514 1514 1514 1514 1514 1514 1512 1512 1512 1512 1512 1512 1511 1512 1511 1511 1511 1511 1511 1511 1511 1511 1511 1512 1513 1514 1515 1517 1518 1519 1521
1518 1517 1516 1516 1515 1515 1515 1514 1514 1514 1514 1514 1513 1513 1513 1513 1512 1511 1510 1510 1509 1509 1509 1509 1508 1509 1508 1508 1508 1508 1508 1508 1508 1508 1508 1509 1510 1511 1512 1513 1514 1516 1517
1517 1516 1515 1515 1514 1514 1514 1514 1513 1513 1513 1512 1512 1512 1511 1511 1510 1510 1509 1508 1507 1507 1506 1506 1506 1505 1505 1505 1505 1504 1504 1505 1505 1504 1505 1505 1506 1507 1508 1510 1511 1512 1514
1517 1516 1515 1514 1514 1513 1513 1513 1512 1512 1512 1511 1511 1510 1510 1509 1509 1508 1507 1506 1505 1504 1503 1503 1503 1503 1502 1502 1502 1501 1501 1501 1501 1501 1501 1502 1502 1503 1504 1506 1507 1508 1510
1516 1515 1515 1514 1513 1513 1512 1512 1511 1511 1510 1510 1509 1509 1508 1508 1507 1506 1506 1505 1505 1502 1501 1501 1500 1500 1500 1499 1499 1498 1498 1498 1498 1497 1497 1498 1499 1499 1500 1502 1503 1504 1506
1515 1514 1513 1513 1512 1512 1511 1510 1509 1509 1509 1508 1508 1507 1506 1506 1505 1505 1504 1503 1503 1501 1499 1498 1498 1497 1496 1496 1496 1495 1495 1495 1495 1494 1493 1494 1494 1495 1496 1497 1499 1500 1502
1514 1513 1512 1512 1511 1510 1509 1508 1508 1507 1507 1506 1506 1505 1504 1504 1503 1502 1502 1501 1500 1499 1497 1496 1495 1494 1493 1493 1493 1493 1492 1492 1491 1491 1490 1490 1490 1491 1492 1493 1495 1496 1497
1514 1513 1512 1511 1510 1509 1508 1507 1506 1505 1505 1504 1504 1503 1502 1502 1501 1500 1499 1498 1497 1496 1495 1493 1492 1492 1491 1490 1490 1490 1489 1489 1488 1488 1488 1487 1487 1487 1488 1489 1491 1492 1493
1513 1512 1511 1510 1508 1507 1506 1505 1504 1503 1503 1502 1502 1501 1500 1500 1499 1498 1497 1496 1495 1494 1493 1491 1490 1490 1488 1488 1487 1487 1487 1487 1486 1486 1485 1485 1484 1484 1485 1486 1487 1488 1490
1512 1510 1509 1508 1507 1506 1505 1503 1503 1502 1501 1500 1500 1499 1498 1498 1497 1496 1495 1494 1493 1491 1490 1489 1488 1487 1486 1486 1485 1484 1483 1484 1483 1483 1483 1483 1482 1482 1482 1482 1483 1484 1485
1510 1509 1508 1507 1505 1504 1503 1502 1501 1500 1499 1498 1498 1497 1496 1496 1495 1494 1493 1491 1490 1489 1488 1487 1486 1485 1484 1484 1483 1482 1482 1481 1481 1481 1480 1480 1480 1479 1480 1480 1480 1481 1482
1509 1507 1506 1505 1504 1503 1501 1500 1499 1498 1497 1496 1495 1495 1494 1493 1492 1491 1490 1490 1489 1487 1486 1485 1484 1483 1482 1482 1481 1480 1479 1479 1478 1479 1478 1477 1477 1477 1477 1477 1477 1477 1478
1507 1506 1505 1504 1503 1501 1500 1499 1498 1497 1496 1494 1493 1493 1492 1491 1490 1489 1488 1488 1487 1486 1485 1484 1482 1481 1480 1480 1479 1478 1477 1477 1476 1476 1476 1474 1474 1474 1474 1474 1474 1475 1475
1506 1505 1504 1503 1501 1500 1499 1498 1496 1495 1494 1493 1491 1491 1490 1488 1488 1487 1486 1485 1484 1484 1483 1481 1480 1479 1478 1477 1476 1476 1475 1475 1474 1474 1474 1472 1472 1471 1471 1471 1471 1472 1472
1504 1503 1502 1501 1500 1499 1498 1497 1495 1494 1492 1491 1490 1489 1488 1487 1486 1485 1484 1483 1482 1481 1480 1479 1478 1477 1476 1475 1474 1473 1472 1472 1471 1471 1471 1470 1469 1469 1468 1468 1468 1468 1469
1503 1502 1501 1500 1499 1498 1497 1496 1494 1493 1491 1490 1489 1488 1487 1486 1485 1483 1482 1480 1479 1478 1477 1476 1475 1474 1473 1473 1472 1471 1470 1469 1468 1468 1468 1468 1467 1466 1466 1466 1466 1466 1466